Hourly Data Report for January 25, 2021

CARBERRY CS
MANITOBA
Current Station Operator: ECCC - MSC

49°54'20.900" N
99°21'26.800" W
383.50 m
5010547
71170
WZE

Download Data

Hourly Data (January 2021)
Hourly Data Report for January 25, 2021
TIME
LST
Temp Definition
°C
Dew Point Definition
°C
Rel Hum Definition
%
Precip. Amount Definition
mm

Wind Dir Definition
10's deg

Wind Spd Definition
km/h
Visibility Definition
km
Stn Press Definition
kPa
Hmdx Definition


Wind Chill Definition


Weather Definition


00:00 -23.6 -27.6 70 0.0 4 13   97.77   -33 LegendNANA
01:00 -23.7 -27.7 70 0.0 4 15   97.79   -34 LegendNANA
02:00 -23.6 -27.5 70 0.0 5 13   97.82   -33 LegendNANA
03:00 -23.8 -27.4 72 0.0 5 16   97.86   -34 LegendNANA
04:00 -23.9 -27.3 74 0.0 5 14   97.86   -34 LegendNANA
05:00 -24.1 -27.4 74 0.0 4 17   97.83   -35 LegendNANA
06:00 -24.1 -27.3 74 0.0 4 19   97.82   -35 LegendNANA
07:00 -24.4 -27.8 74 0.0 5 19   97.84   -36 LegendNANA
08:00 -24.5 -27.9 74 0.0 5 13   97.95   -34 LegendNANA
09:00 -24.6 -28.0 73 0.0 4 10   98.06   -33 LegendNANA
10:00 -24.7 -28.2 72 0.0 4 14   98.09   -35 LegendNANA
11:00 -24.5 -28.4 70 0.0 4 13   98.09   -34 LegendNANA
12:00 -24.0 -28.2 69 0.0 4 11   98.09   -32 LegendNANA
13:00 -23.9 -28.0 69 0.0 3 11   98.02   -32 LegendNANA
14:00 -23.5 -27.7 68 0.0 6 9   97.98   -31 LegendNANA
15:00 -23.1 -27.3 69 0.0 4 10   97.97   -31 LegendNANA
16:00 -23.0 -26.9 70 0.0 3 10   97.93   -31 LegendNANA
17:00 -23.0 -26.8 71 0.0 4 12   97.95   -32 LegendNANA
18:00 -23.0 -26.8 71 0.0 2 11   98.01   -31 LegendNANA
19:00 -23.2 -26.8 72 0.0 3 7   98.03   -29 LegendNANA
20:00 -24.3 -27.9 72 0.0 3 5   98.05   -29 LegendNANA
21:00 -25.8 -29.2 73 0.0 2 5   98.05   -31 LegendNANA
22:00 -26.3 -29.6 73 0.0 2 5   98.08   -31 LegendNANA
23:00 -29.5 -32.5 75 0.0 1 3   98.10   -33 LegendNANA

Notes on Data Quality.

Legend

  • E = Estimated
  • M = Missing
  • NA = Not Available*
  • [empty] = Indicates an unobserved value
Date modified: